TimeEEST,TemperatureF,Dew PointF,Humidity,Sea Level PressureIn,VisibilityMPH,Wind Direction,Wind SpeedMPH,Gust SpeedMPH,PrecipitationIn,Events,Conditions,WindDirDegrees,DateUTC
12:00 AM,63,45,40,29.97,6,Calm,Calm,,,,,,2012-12-06 21:00:00
12:00 AM,62.6,44.6,52,29.98,-9999.0,Calm,Calm,-,N/A,,Clear,0,2012-12-06 21:00:00
6:00 AM,55,42,52,29.96,6,Calm,Calm,,,,,,2012-12-07 03:00:00
6:00 AM,55.4,42.8,63,29.98,-9999.0,Calm,Calm,-,N/A,,Clear,0,2012-12-07 03:00:00
8:00 AM,59.0,42.8,55,29.98,-9999.0,Calm,Calm,-,N/A,,Clear,0,2012-12-07 05:00:00
9:00 AM,55.4,41.0,58,30.01,-9999.0,Calm,Calm,-,N/A,,Clear,0,2012-12-07 06:00:00
10:00 AM,57.2,41.0,55,30.01,-9999.0,Calm,Calm,-,N/A,,Clear,0,2012-12-07 07:00:00
11:00 AM,64.4,42.8,45,30.01,-9999.0,Calm,Calm,-,N/A,,Clear,0,2012-12-07 08:00:00
12:00 PM,68,43,29,29.99,6,North,6.9,,,,Clear,0,2012-12-07 09:00:00
12:00 PM,68.0,42.8,40,30.01,-9999.0,North,6.9,-,N/A,,Clear,360,2012-12-07 09:00:00
1:00 PM,69.8,42.8,38,30.01,-9999.0,North,6.9,-,N/A,,Clear,360,2012-12-07 10:00:00
2:00 PM,71.6,42.8,35,29.95,-9999.0,North,6.9,-,N/A,,Clear,360,2012-12-07 11:00:00
3:00 PM,77.0,41.0,28,29.92,-9999.0,NNE,3.5,-,N/A,,Clear,30,2012-12-07 12:00:00
4:00 PM,77.0,41.0,28,29.92,-9999.0,NNE,3.5,-,N/A,,Clear,30,2012-12-07 13:00:00
6:00 PM,75,44,22,29.90,6,NNW,3.5,,,,Clear,330,2012-12-07 15:00:00
6:00 PM,75.2,44.6,34,29.92,-9999.0,NNW,3.5,-,N/A,,Clear,330,2012-12-07 15:00:00
7:00 PM,73.4,44.6,36,29.92,-9999.0,NNW,3.5,-,N/A,,Clear,330,2012-12-07 16:00:00
8:00 PM,71.6,44.6,38,29.92,-9999.0,Calm,Calm,-,N/A,,Clear,0,2012-12-07 17:00:00
9:00 PM,71.6,42.8,35,29.95,-9999.0,North,4.6,-,N/A,,Clear,360,2012-12-07 18:00:00
10:00 PM,71.6,42.8,35,29.95,-9999.0,North,5.8,-,N/A,,Clear,360,2012-12-07 19:00:00
11:00 PM,69.8,42.8,38,29.98,-9999.0,North,5.8,-,N/A,,Clear,360,2012-12-07 20:00:00